Location: Star Corral Observatory
(36.0443°N, 95.7804°W)
Time: 07:18:37
(UTC-06:00)

Hubble Space Telescope - Visible Passes

Search period start: 13 December 2025 00:00
Search period end: 23 December 2025 00:00
Orbit: 480 x 483 km, 28.5° (Epoch: 12 December)

Date Brightness Start Highest point End Pass type
(mag) Time Alt. Az. Time Alt. Az. Time Alt. Az.
13 Dec 2.3 19:10:28 10° WSW 19:13:32 24° S 19:13:32 24° S visible
14 Dec 2.4 18:41:14 10° WSW 18:44:19 24° S 18:46:06 17° SSE visible
15 Dec 2.5 18:11:58 10° WSW 18:15:03 24° S 18:18:08 10° SE visible
15 Dec 3.7 19:52:38 10° SW 19:52:53 11° SW 19:52:53 11° SW visible
16 Dec 2.6 17:42:41 10° WSW 17:45:46 23° S 17:48:51 10° SE visible
16 Dec 3.2 19:23:24 10° SW 19:25:05 13° SSW 19:25:36 12° S visible
17 Dec 3.3 18:54:08 10° SW 18:55:47 12° SSW 18:57:24 10° S visible
18 Dec 3.4 18:24:52 10° SW 18:26:27 12° SSW 18:28:02 10° S visible
19 Dec 3.5 17:55:34 10° SW 17:57:06 12° SSW 17:58:39 10° S visible
